Wetbulb
70.99 72.64 72.66 73.30 73.08 72.69 72.34 72.57 72.46 73.06 74.15 74.64 74.39 74.19 74.12 74.25 74.05 74.14 74.44 74.79 75.09 74.74 74.24 73.57 73.12 72.74 72.88 72.76 73.22 73.48 73.31 73.22 73.27 73.57 73.81 73.30 73.15 73.15 72.72 73.10 72.59 72.17 72.97
72.62 73.60 72.06 72.65 72.98 72.94 72.67 72.57 72.72 73.02 73.84 74.34 74.51 74.27 74.12 74.16 74.16 74.26 74.55 74.91 74.96 74.69 73.68 73.12 72.95 72.57 72.47 72.50 72.49 72.71 72.68 72.40 72.58 72.93 73.42 73.02 73.00 72.70 72.69 72.45 71.78 72.26 72.77
71.95 73.29 73.55 72.21 72.52 72.98 72.95 72.90 73.28 73.47 73.44 73.68 73.95 74.07 74.22 74.25 74.34 74.28 74.21 74.15 74.46 74.71 73.34 73.04 72.92 72.42 72.15 72.24 72.16 72.28 72.02 71.88 72.14 72.65 72.98 72.53 72.08 72.40 72.40 72.28 71.90 72.00 72.15
72.08 72.75 73.34 71.88 72.54 72.61 72.56 72.61 72.97 73.38 72.97 73.26 73.37 73.66 74.10 74.25 74.14 74.14 73.73 73.32 73.78 74.11 73.14 72.92 72.94 72.37 72.10 71.76 71.70 71.49 71.43 71.28 71.36 71.44 72.34 72.08 71.49 71.69 71.66 71.92 72.32 72.03 71.35
67.60 67.94 64.01 68.60 70.90 72.64 72.54 72.35 72.72 72.79 72.48 72.66 72.98 73.43 73.72 73.88 74.00 73.79 72.97 72.90 73.59 73.80 73.24 73.17 73.10 72.89 71.51 70.93 70.87 70.92 70.80 69.96 69.77 70.08 71.65 72.47 72.33 71.39 71.66 72.22 71.85 70.81 71.20
56.57 57.53 60.17 63.24 66.62 70.51 72.41 72.65 72.56 72.50 71.84 72.01 72.64 73.33 73.39 73.50 73.72 73.32 72.54 72.77 73.58 73.94 73.76 73.99 73.40 71.83 70.38 70.11 70.31 70.47 70.04 69.36 68.63 70.72 70.85 71.05 71.87 71.44 71.34 71.39 70.66 70.49 70.45
53.47 54.87 56.44 58.81 61.63 64.60 65.94 69.32 71.31 71.85 71.55 71.51 72.16 72.65 73.19 73.47 73.53 72.86 72.01 72.19 72.95 73.55 73.55 73.45 72.54 70.66 69.67 69.76 69.87 69.59 69.35 68.65 70.30 70.48 70.45 71.38 71.87 72.12 71.64 71.20 70.92 70.23 70.27
50.85 51.69 53.31 54.86 56.75 59.41 61.00 62.76 65.65 68.90 69.96 70.93 71.33 71.91 72.46 72.66 72.64 72.29 71.77 71.70 72.15 72.46 72.39 71.77 70.98 70.17 69.50 69.30 69.34 68.59 68.37 68.25 69.78 70.75 69.39 70.50 70.97 71.67 71.46 70.77 70.31 69.88 69.66
49.62 49.00 50.13 51.91 52.47 54.66 56.98 58.42 60.61 63.09 66.79 68.88 69.49 69.75 69.95 70.32 70.25 71.36 71.42 71.53 71.61 71.69 71.69 70.86 69.80 69.11 69.11 69.01 68.52 67.84 67.06 67.66 71.16 71.27 69.40 69.44 70.19 71.27 71.22 70.82 69.92 69.77 69.27
47.39 47.34 47.06 48.97 49.97 50.61 53.54 55.03 55.93 58.76 60.68 64.41 68.29 68.63 68.43 67.98 69.64 70.09 70.42 70.78 71.16 71.29 71.32 70.36 69.14 68.70 68.48 67.92 67.53 66.90 66.30 67.06 70.78 71.11 70.86 70.31 69.37 71.20 71.12 70.69 69.96 69.58 69.26
45.66 45.75 45.55 45.88 47.66 47.89 50.78 51.97 53.14 54.88 56.86 60.27 62.44 66.03 68.00 70.34 71.26 71.49 70.50 69.53 70.33 70.31 70.27 70.02 68.77 67.90 67.24 67.06 66.99 66.54 66.21 70.26 70.57 70.70 71.27 68.16 69.32 70.99 70.87 70.99 69.99 69.37 69.11
42.51 43.69 44.06 44.36 45.23 45.58 47.22 49.10 49.91 51.31 53.35 55.59 59.69 60.86 64.90 69.08 70.07 69.92 69.49 67.62 69.10 68.45 69.31 69.17 68.31 67.26 67.12 70.21 69.71 67.17 69.34 69.90 70.16 70.48 70.75 67.19 69.26 70.94 70.78 70.77 69.76 69.31 69.07
41.83 42.28 42.65 42.93 44.13 44.11 44.70 46.48 47.25 48.74 50.07 51.73 55.37 56.23 58.35 63.35 69.84 69.60 70.13 70.82 71.66 69.94 71.66 70.57 70.77 70.63 70.19 69.95 69.67 69.39 69.39 69.55 69.91 70.18 69.20 66.14 68.56 70.59 70.97 70.54 69.70 69.33 69.03
40.65 41.04 41.86 42.16 42.71 43.09 43.88 43.93 45.09 46.47 48.12 49.29 51.83 52.94 54.14 59.01 62.37 67.77 68.76 69.23 69.36 69.68 69.87 69.84 69.51 70.64 70.47 69.89 69.66 69.08 69.19 68.95 68.91 69.48 69.45 65.35 67.12 70.14 71.19 70.61 69.98 69.18 69.02
39.43 40.25 40.93 41.76 42.01 41.99 42.52 42.93 43.66 44.78 46.41 48.16 49.26 51.07 52.14 53.30 58.78 60.11 62.85 68.29 68.88 69.12 68.99 68.70 68.37 68.24 69.82 69.49 69.33 68.88 68.39 68.82 68.65 68.61 69.69 64.71 65.02 68.26 70.55 71.17 70.31 69.42 68.78
39.11 39.19 40.58 41.08 41.91 41.69 41.55 42.20 42.52 43.95 45.26 46.41 47.89 49.24 50.70 53.69 52.90 54.83 59.41 61.23 67.62 68.91 68.37 68.12 67.92 67.79 67.39 69.28 68.82 68.67 68.20 68.19 68.10 68.25 69.02 69.26 63.46 65.45 68.03 69.67 70.45 69.78 68.83
38.98 39.42 39.47 40.68 41.54 41.26 41.66 41.92 42.66 43.18 43.75 44.46 46.21 48.36 49.09 50.40 52.27 53.58 54.10 58.28 61.02 67.19 68.01 67.88 67.79 67.73 66.36 66.94 68.30 68.31 67.98 67.91 67.55 67.60 68.45 69.10 67.95 62.49 64.60 67.10 68.53 69.33 69.25
38.40 38.01 39.04 39.87 40.48 40.93 41.52 41.98 42.39 43.03 43.28 44.03 45.44 46.23 48.23 50.10 51.27 51.84 53.88 55.58 60.53 59.76 64.30 67.26 66.72 65.87 65.52 65.25 66.12 67.74 67.48 67.56 67.38 67.51 67.78 68.02 68.91 68.75 64.50 64.35 66.12 67.54 67.83
37.54 37.57 37.80 39.16 39.49 40.40 41.24 41.80 42.46 42.96 43.12 43.79 44.37 45.17 47.35 48.61 49.60 50.21 51.43 53.47 56.59 57.38 57.88 63.53 66.52 65.52 64.61 64.50 64.87 67.46 67.43 66.91 67.17 67.00 66.93 67.58 68.66 68.60 69.06 64.31 63.30 64.38 65.74
37.36 37.74 37.88 38.54 39.49 39.84 40.53 41.02 41.67 42.01 42.23 42.96 43.77 44.57 45.98 46.99 47.62 48.24 50.14 51.85 53.23 55.17 58.13 59.43 63.88 66.10 65.26 64.34 63.42 64.75 66.89 66.83 66.86 66.85 67.34 67.61 68.31 68.43 68.85 68.80 68.11 66.75 62.50
37.02 36.96 37.39 37.60 38.74 38.35 38.04 36.59 37.01 37.60 39.70 40.49 41.53 42.88 44.13 45.84 46.86 47.32 49.40 51.26 52.71 53.65 56.77 58.42 60.13 63.54 64.40 65.10 63.17 62.72 64.27 66.28 66.08 66.08 66.85 67.64 67.73 67.83 68.38 68.58 68.78 66.64 66.13
35.69 36.58 36.75 36.85 36.99 36.80 36.85 36.88 37.17 37.84 38.84 40.02 41.50 42.45 43.90 44.89 46.15 46.63 48.49 49.95 51.56 53.12 53.72 57.89 59.65 58.85 58.95 63.70 61.45 61.08 59.07 61.68 63.77 65.28 65.90 66.32 67.39 67.86 67.31 67.99 68.39 67.69 67.78
35.24 35.37 35.41 36.06 36.21 36.39 36.43 36.29 36.43 37.32 37.64 37.57 38.52 40.03 42.53 44.55 46.25 47.40 47.60 48.77 50.44 52.23 52.21 52.85 56.66 58.03 58.43 59.32 63.24 61.35 58.56 58.09 61.87 64.55 65.12 65.29 66.36 66.88 67.40 67.44 67.74 67.81 67.89
34.41 35.61 35.90 35.76 35.57 35.83 35.67 34.34 34.09 33.69 33.13 36.06 37.62 39.24 41.11 44.04 45.93 47.22 48.06 48.60 48.71 49.25 49.93 52.97 54.79 56.86 61.08 60.84 62.60 63.72 62.12 62.00 58.91 59.21 62.57 64.60 65.89 65.67 66.71 66.66 66.73 67.54 67.78
35.09 34.95 35.63 35.70 35.73 35.10 34.60 34.67 34.60 34.15 35.41 35.69 36.52 37.63 38.74 41.11 43.13 45.25 47.17 48.02 49.22 50.71 50.76 50.64 53.85 56.31 61.05 62.44 59.37 58.10 59.75 60.59 59.63 60.20 58.46 60.71 63.19 65.04 66.35 66.65 66.30 66.97 67.41
34.69 34.23 35.03 34.96 34.92 34.99 34.35 34.42 34.54 33.40 33.46 33.21 34.20 34.59 35.70 37.78 39.36 41.18 42.45 43.34 45.87 47.21 49.40 51.99 54.75 56.97 57.81 62.50 62.26 59.79 58.89 59.31 58.80 58.61 58.87 60.52 60.85 62.82 64.79 65.85 65.68 66.47 67.26
MSLP
1013.52 1013.64 1014.11 1014.10 1014.14 1014.24 1014.19 1014.20 1014.21 1014.15 1013.97 1013.72 1013.67 1013.88 1014.05 1014.21 1014.45 1014.69 1014.85 1014.99 1015.09 1015.24 1015.29 1015.35 1015.34 1015.42 1015.35 1015.37 1015.54 1015.60 1016.01 1016.20 1016.19 1016.25 1016.30 1016.34 1016.38 1016.47 1016.65 1016.71 1016.65 1016.48 1016.90
1013.98 1014.08 1014.37 1014.35 1014.44 1014.54 1014.52 1014.49 1014.49 1014.45 1014.35 1014.24 1014.00 1013.97 1014.03 1014.27 1014.45 1014.70 1014.95 1015.12 1015.26 1015.25 1015.47 1015.57 1015.47 1015.56 1015.65 1015.61 1015.60 1015.62 1015.94 1016.32 1016.33 1016.43 1016.44 1016.49 1016.62 1016.67 1016.88 1016.99 1016.78 1016.78 1017.11
1014.45 1014.47 1014.54 1014.80 1014.74 1014.73 1014.73 1014.64 1014.68 1014.64 1014.52 1014.46 1014.32 1014.18 1014.12 1014.29 1014.41 1014.65 1014.97 1015.09 1015.30 1015.45 1015.47 1015.60 1015.63 1015.69 1015.76 1015.94 1015.95 1015.88 1016.11 1016.39 1016.51 1016.72 1016.72 1016.20 1016.35 1016.82 1016.86 1017.03 1017.09 1017.04 1017.37
1014.97 1015.01 1015.11 1015.21 1015.16 1015.21 1015.22 1014.99 1014.89 1014.79 1014.80 1014.56 1014.56 1014.49 1014.52 1014.50 1014.64 1014.65 1014.94 1015.21 1015.43 1015.49 1015.55 1015.62 1015.67 1015.72 1015.84 1015.98 1016.17 1016.19 1016.29 1016.48 1016.61 1016.76 1016.63 1016.69 1016.63 1017.09 1017.04 1017.11 1017.20 1017.26 1017.43
1016.01 1016.00 1016.24 1015.92 1015.57 1015.48 1015.51 1015.50 1015.46 1014.99 1014.95 1014.86 1014.90 1014.83 1014.96 1014.97 1015.02 1014.87 1014.96 1015.16 1015.41 1015.45 1015.48 1015.59 1015.71 1015.84 1015.96 1016.07 1016.16 1016.22 1016.37 1016.61 1016.75 1016.74 1016.61 1016.71 1016.73 1016.99 1017.12 1017.15 1017.32 1017.37 1017.53
1017.06 1017.06 1017.00 1016.70 1016.31 1015.81 1015.71 1015.47 1015.67 1015.44 1015.27 1015.06 1015.12 1015.12 1015.06 1015.08 1015.29 1015.05 1015.20 1015.16 1015.41 1015.41 1015.44 1015.56 1015.67 1015.78 1015.99 1016.11 1016.18 1016.29 1016.45 1016.71 1016.89 1016.63 1016.72 1016.86 1016.81 1017.08 1017.14 1017.27 1017.31 1017.53 1017.74
1018.14 1017.89 1017.56 1017.33 1017.09 1016.75 1016.40 1016.15 1015.77 1015.49 1015.54 1015.34 1015.18 1015.11 1015.11 1015.18 1015.32 1015.28 1015.23 1015.27 1015.39 1015.47 1015.41 1015.48 1015.63 1015.81 1015.92 1016.07 1016.13 1016.25 1016.37 1016.60 1016.50 1016.72 1016.79 1016.91 1016.84 1017.13 1017.40 1017.40 1017.50 1017.62 1017.81
1018.67 1018.58 1018.37 1017.90 1017.79 1017.51 1017.20 1016.80 1016.48 1016.06 1015.70 1015.52 1015.43 1015.29 1015.08 1015.20 1015.33 1015.36 1015.40 1015.46 1015.42 1015.40 1015.42 1015.46 1015.52 1015.74 1015.93 1016.06 1016.16 1016.21 1016.29 1016.51 1016.54 1016.53 1016.70 1016.82 1016.97 1017.10 1017.31 1017.60 1017.67 1017.77 1017.85
1019.53 1019.31 1019.29 1018.96 1018.51 1018.04 1017.77 1017.58 1017.19 1016.75 1016.10 1015.78 1015.66 1015.55 1015.20 1015.16 1015.16 1015.15 1015.21 1015.32 1015.43 1015.47 1015.49 1015.41 1015.46 1015.62 1015.79 1016.02 1016.10 1016.26 1016.38 1016.48 1016.19 1016.27 1016.41 1016.49 1016.92 1017.10 1017.15 1017.46 1017.79 1017.91 1017.95
1020.21 1020.13 1020.05 1019.58 1019.10 1018.70 1018.35 1018.18 1017.78 1017.19 1016.71 1016.21 1015.71 1015.63 1015.60 1015.32 1014.96 1015.02 1015.17 1015.15 1015.16 1015.28 1015.37 1015.42 1015.51 1015.62 1015.74 1015.90 1015.97 1016.13 1016.35 1016.44 1016.21 1016.25 1016.22 1016.23 1016.74 1016.95 1017.03 1017.32 1017.75 1017.96 1018.11
1020.57 1020.63 1020.67 1020.37 1019.94 1019.55 1018.74 1018.50 1018.14 1017.65 1017.14 1016.56 1016.16 1015.81 1015.42 1015.16 1014.93 1014.62 1014.58 1014.78 1015.00 1015.06 1015.15 1015.18 1015.29 1015.53 1015.76 1015.88 1015.89 1015.95 1016.22 1015.84 1015.85 1016.06 1016.06 1016.35 1016.70 1016.87 1017.08 1017.28 1017.57 1017.85 1018.09
1021.30 1021.20 1021.15 1021.00 1020.56 1020.18 1019.46 1019.13 1018.65 1018.18 1017.77 1017.26 1016.75 1016.31 1015.87 1015.23 1014.96 1014.90 1014.69 1014.53 1014.60 1014.74 1014.92 1014.93 1015.05 1015.30 1015.66 1015.26 1015.43 1015.77 1015.56 1015.45 1015.65 1015.83 1015.79 1016.28 1016.46 1016.58 1016.81 1017.20 1017.39 1017.81 1018.09
1022.60 1022.26 1022.04 1021.76 1021.40 1021.02 1020.42 1019.80 1019.19 1018.79 1018.26 1017.78 1017.23 1016.94 1016.42 1015.70 1014.73 1014.55 1014.49 1014.34 1014.22 1014.28 1014.46 1014.56 1014.63 1014.71 1014.71 1014.82 1014.79 1014.90 1014.95 1015.24 1015.25 1015.41 1015.57 1016.05 1016.28 1016.40 1016.56 1016.87 1017.29 1017.57 1017.85
1023.03 1022.90 1022.61 1022.23 1021.81 1021.52 1021.14 1020.49 1019.94 1019.32 1018.74 1018.14 1017.65 1017.35 1016.89 1016.12 1015.40 1014.46 1014.14 1014.08 1014.14 1013.91 1013.96 1014.14 1014.22 1014.00 1014.12 1014.38 1014.55 1014.57 1014.62 1014.71 1014.82 1015.04 1015.16 1015.69 1015.90 1016.16 1016.27 1016.49 1016.98 1017.36 1017.58
1023.39 1023.21 1022.91 1022.52 1022.17 1021.86 1021.39 1020.97 1020.41 1019.80 1019.27 1018.71 1018.04 1017.61 1017.27 1016.60 1015.81 1015.19 1014.54 1013.67 1013.46 1013.58 1013.46 1013.57 1013.75 1013.81 1013.63 1013.69 1013.92 1014.16 1014.07 1014.30 1014.54 1014.66 1014.74 1015.33 1015.46 1015.80 1016.01 1016.14 1016.69 1017.16 1017.46
1023.74 1023.46 1023.25 1022.83 1022.55 1022.23 1021.70 1021.24 1020.70 1020.07 1019.44 1018.83 1018.18 1017.64 1017.31 1016.64 1016.10 1015.56 1014.70 1014.06 1013.02 1012.84 1013.01 1013.03 1013.09 1013.24 1013.29 1013.18 1013.28 1013.41 1013.58 1013.66 1013.93 1014.15 1014.27 1014.63 1015.15 1015.51 1015.73 1015.75 1016.10 1016.57 1016.94
1024.19 1023.79 1023.32 1022.84 1022.62 1022.31 1021.81 1021.31 1020.63 1020.09 1019.66 1018.92 1018.17 1017.57 1017.12 1016.71 1015.99 1015.42 1014.65 1014.00 1013.31 1012.38 1012.13 1012.24 1012.43 1012.51 1012.76 1012.83 1012.75 1012.78 1012.98 1013.16 1013.27 1013.54 1013.67 1014.03 1014.39 1014.97 1015.34 1015.46 1015.75 1016.05 1016.39
1024.41 1023.96 1023.60 1023.22 1022.73 1022.23 1021.67 1021.08 1020.42 1019.80 1019.37 1018.79 1018.17 1017.49 1016.85 1016.34 1015.95 1015.30 1014.41 1013.59 1012.98 1012.85 1012.08 1011.59 1011.56 1011.82 1011.76 1011.96 1012.19 1011.95 1012.16 1012.41 1012.68 1012.80 1013.08 1013.38 1013.71 1013.81 1014.57 1015.01 1015.36 1015.60 1015.85
1024.82 1024.29 1023.89 1023.51 1022.94 1022.35 1021.66 1020.95 1020.14 1019.50 1018.78 1018.36 1018.03 1017.46 1016.57 1015.94 1015.61 1015.16 1014.45 1013.70 1013.08 1012.57 1011.97 1011.20 1010.26 1010.42 1010.29 1010.35 1010.94 1011.25 1011.23 1011.39 1011.71 1011.91 1012.34 1012.67 1013.04 1013.39 1013.11 1013.99 1014.73 1015.04 1015.42
1024.93 1024.46 1024.08 1023.58 1022.96 1022.31 1021.51 1020.87 1020.09 1019.26 1018.66 1018.14 1017.55 1017.17 1016.67 1015.84 1015.28 1014.91 1014.24 1013.52 1012.88 1012.04 1011.24 1010.87 1009.83 1009.06 1009.20 1009.58 1009.18 1010.33 1010.60 1010.73 1011.06 1011.19 1011.40 1011.75 1012.10 1012.67 1012.88 1012.93 1013.63 1014.28 1014.87
1024.64 1024.25 1023.90 1023.45 1023.04 1022.60 1021.79 1021.05 1020.29 1019.47 1018.79 1018.10 1017.45 1016.93 1016.32 1015.49 1014.81 1014.21 1013.72 1013.04 1012.35 1011.60 1010.78 1010.16 1009.57 1009.19 1007.80 1009.21 1008.71 1009.15 1010.06 1010.24 1010.03 1010.49 1010.89 1011.05 1011.38 1011.74 1012.36 1012.51 1012.74 1013.47 1013.95
1024.70 1024.49 1024.10 1023.76 1023.25 1022.84 1022.33 1021.69 1020.99 1020.00 1019.07 1018.21 1017.14 1016.63 1015.88 1015.09 1014.45 1013.81 1013.13 1012.48 1011.86 1011.15 1010.56 1009.64 1008.90 1008.03 1008.50 1006.69 1006.73 1007.76 1008.71 1009.57 1009.51 1009.26 1009.95 1010.49 1010.60 1010.89 1011.43 1011.94 1012.05 1012.50 1012.99
1024.97 1024.72 1024.40 1023.91 1023.52 1023.01 1022.46 1021.72 1020.95 1020.13 1019.11 1018.18 1017.37 1016.44 1015.63 1014.85 1013.92 1013.29 1012.44 1011.92 1011.21 1010.73 1010.00 1009.56 1008.98 1008.20 1007.09 1007.39 1007.24 1006.76 1006.83 1007.53 1007.72 1008.06 1008.70 1009.64 1010.07 1010.35 1010.63 1010.93 1011.36 1011.67 1012.27
1025.23 1024.98 1024.63 1024.10 1023.55 1023.10 1022.63 1021.92 1021.12 1020.23 1019.31 1018.62 1017.62 1016.71 1015.95 1014.64 1013.43 1012.54 1011.83 1011.11 1010.54 1010.20 1009.57 1008.94 1008.45 1007.96 1007.24 1006.39 1006.33 1006.57 1006.84 1006.44 1006.80 1007.03 1008.04 1008.62 1009.28 1009.52 1009.75 1010.11 1010.51 1010.80 1011.29
1025.23 1025.06 1024.53 1024.12 1023.52 1023.15 1022.64 1022.03 1020.96 1020.22 1019.47 1018.52 1017.68 1016.87 1015.86 1014.58 1013.38 1012.18 1011.23 1010.51 1009.77 1009.11 1008.59 1008.18 1007.64 1007.06 1006.27 1006.04 1006.03 1005.48 1004.61 1006.21 1006.97 1006.49 1006.99 1008.15 1008.69 1008.68 1008.76 1009.38 1009.79 1010.15 1010.58
1025.45 1025.18 1024.50 1024.05 1023.44 1023.01 1022.60 1021.72 1020.96 1020.45 1019.51 1018.60 1017.86 1016.92 1015.83 1014.54 1013.22 1012.30 1011.46 1010.53 1009.62 1008.83 1007.99 1006.94 1006.59 1006.02 1005.52 1004.90 1005.00 1005.15 1004.83 1005.50 1007.03 1006.50 1006.81 1007.39 1007.65 1007.88 1007.99 1008.37 1008.99 1009.33 1009.50
Wind_Speed
7 5 7 9 10 8 7 6 6 6 7 10 14 14 14 14 13 12 11 11 11 11 11 8 6 6 8 8 8 9 8 6 8 8 9 11 12 13 12 10 11 13 13
8 8 7 9 9 8 8 7 5 5 6 7 11 13 14 13 13 11 11 10 10 11 10 7 6 6 6 7 7 9 9 8 8 7 8 10 10 12 12 8 7 13 12
9 8 9 9 8 8 7 7 6 4 5 6 7 11 13 13 13 12 11 10 9 10 10 8 6 5 6 6 7 8 8 8 8 7 5 6 9 9 12 10 8 12 12
13 12 14 13 11 8 6 5 5 5 4 4 5 7 10 12 12 12 11 10 9 10 10 9 7 7 6 6 7 8 8 9 9 8 6 5 6 8 11 11 11 13 13
19 19 21 22 15 11 7 5 2 4 5 4 3 4 6 8 10 11 11 10 10 10 10 10 9 6 7 7 8 8 9 8 8 7 6 6 5 8 11 11 12 12 11
18 18 20 25 23 20 16 7 4 4 1 4 4 4 5 6 8 9 10 10 10 11 11 10 8 8 8 7 7 8 8 7 5 5 6 6 6 8 12 10 9 9 9
17 17 18 26 25 26 25 22 15 5 3 4 6 7 7 7 7 8 9 10 10 10 10 9 8 8 8 8 7 8 8 8 6 5 5 6 6 10 11 11 9 9 9
18 18 18 23 25 23 24 24 22 16 11 7 6 7 8 9 9 9 9 9 10 10 10 10 9 9 8 8 8 8 7 7 7 6 6 5 5 9 11 11 9 10 10
18 18 16 16 19 22 22 23 22 21 17 13 8 9 9 9 10 10 10 10 10 9 10 9 10 9 9 9 9 8 6 6 7 5 5 5 7 9 10 10 10 10 10
16 17 17 17 17 16 14 21 22 20 20 18 11 10 11 12 9 10 10 11 11 10 10 9 9 9 9 9 9 7 7 6 9 6 6 5 8 11 10 11 11 9 9
14 16 16 16 16 16 14 15 17 19 19 17 16 14 8 7 10 13 12 8 11 11 11 11 10 9 8 8 9 8 6 6 7 5 5 6 10 11 10 10 10 9 9
18 17 16 16 16 15 12 13 13 12 10 11 11 12 9 8 7 8 11 11 11 12 11 11 11 9 8 8 7 8 7 8 7 6 5 7 10 12 11 10 10 10 10
14 13 16 15 14 15 12 10 7 7 8 8 11 11 11 9 6 4 4 6 9 11 9 11 11 10 12 9 8 8 9 9 6 5 7 9 10 14 13 14 12 12 11
14 15 15 16 14 14 10 8 9 8 9 8 10 13 9 6 8 6 5 6 6 7 9 8 7 11 12 12 11 11 11 9 6 5 6 10 11 13 15 14 14 14 13
14 15 16 16 15 14 13 10 9 9 8 10 10 10 9 9 8 8 8 7 7 6 8 8 8 10 12 13 12 12 12 11 11 7 6 10 11 13 15 13 16 15 15
14 15 15 15 14 14 12 13 10 9 10 9 9 10 12 9 10 8 8 9 7 8 8 9 9 9 11 12 13 13 13 12 12 11 8 8 11 12 13 14 14 17 18
12 14 16 15 15 15 14 12 9 9 9 9 9 12 13 11 11 12 10 9 8 7 12 10 10 10 8 10 15 13 12 13 11 12 11 8 9 12 13 13 14 17 18
14 15 16 14 16 16 14 11 9 9 9 9 9 10 13 12 13 13 10 11 7 7 7 11 11 10 10 9 12 12 11 12 13 13 11 10 9 9 13 13 12 15 17
12 13 14 14 15 16 14 11 12 13 10 10 10 10 13 13 13 11 10 11 13 10 8 8 12 13 13 11 11 13 12 12 13 12 14 13 12 11 10 14 14 13 15
11 12 13 12 15 16 12 12 11 11 11 11 11 11 16 13 15 12 12 13 12 12 10 10 12 14 12 12 10 13 13 12 11 12 13 12 12 13 13 12 12 12 14
11 12 14 15 16 13 11 12 11 12 13 11 11 16 15 13 14 13 11 13 12 13 14 13 14 10 12 13 8 8 11 14 14 12 11 11 14 13 13 12 9 7 9
14 14 15 14 14 12 10 11 11 11 10 11 11 15 15 14 14 13 15 13 15 11 15 15 15 12 9 8 9 8 7 9 11 12 12 11 15 12 13 14 13 14 13
13 14 13 14 14 13 15 10 9 10 9 9 10 11 14 18 17 15 16 14 15 14 12 13 15 16 10 9 12 4 7 8 11 8 15 13 13 11 12 13 14 14 14
12 11 12 13 13 12 14 12 15 10 12 11 11 10 14 17 15 14 15 14 13 11 15 15 14 13 14 13 8 14 5 2 8 6 5 13 12 14 14 11 12 14 14
11 11 11 13 13 14 15 14 12 14 11 11 10 15 15 14 15 14 13 14 13 11 13 17 17 16 13 11 9 4 3 4 4 5 6 7 9 11 12 12 10 11 13
11 11 12 14 14 15 16 17 17 17 16 13 13 11 11 11 11 14 15 13 13 13 15 15 17 19 15 15 13 10 10 10 10 5 5 6 10 9 11 11 10 11 12
Wind_Direction
26 104 92 92 96 96 93 81 57 63 83 112 122 129 134 137 142 144 144 147 149 151 147 155 144 127 121 124 120 120 125 125 128 127 126 123 127 130 135 131 140 132 134
75 74 66 79 86 86 87 87 83 70 80 104 124 131 132 136 139 139 144 148 154 158 160 169 155 135 127 134 128 130 131 138 135 137 130 129 133 137 142 141 159 128 138
57 55 57 51 68 84 91 95 94 81 83 106 129 136 137 139 140 142 148 148 152 158 168 178 173 153 136 132 129 135 134 139 138 134 129 147 142 149 151 150 148 144 137
39 40 35 26 29 38 53 88 105 111 114 113 127 137 143 146 150 150 152 154 161 168 176 186 186 171 146 142 139 134 137 142 138 139 163 153 161 154 155 154 152 149 147
36 35 23 18 14 17 23 22 34 128 143 149 153 140 154 155 160 157 160 165 172 177 183 194 193 172 159 162 153 145 148 145 146 176 161 167 170 157 163 158 162 160 162
38 33 28 24 23 20 14 15 358 351 229 172 179 186 177 171 175 168 175 176 181 184 187 195 185 172 169 174 164 154 157 153 172 165 176 166 198 172 172 168 168 164 169
39 33 32 29 25 28 25 16 5 343 290 250 208 202 194 193 198 193 191 191 189 192 189 185 185 182 174 178 176 170 172 165 185 175 193 196 197 183 180 172 166 164 162
36 27 23 24 22 21 23 21 18 13 3 296 258 228 217 205 204 204 205 209 202 197 191 190 192 191 179 177 192 184 189 192 196 198 200 211 183 199 190 182 173 171 162
32 27 18 17 18 14 16 17 15 14 10 11 324 286 253 232 220 211 210 214 215 212 206 200 198 196 187 182 196 198 197 199 224 210 212 213 185 208 194 183 184 175 166
31 27 16 11 11 9 7 8 8 8 11 1 1 350 312 275 235 223 221 222 219 217 213 212 212 206 197 189 193 207 200 206 229 235 224 212 193 210 196 183 187 179 183
24 21 16 11 9 4 1 1 1 359 0 1 358 350 335 318 279 244 228 225 226 222 216 213 215 214 203 200 201 202 201 221 221 225 220 187 205 209 200 186 182 183 180
11 9 10 6 4 0 357 355 354 353 353 350 348 350 339 316 294 283 272 232 225 232 222 217 215 214 210 215 206 202 218 221 218 226 221 198 207 207 203 184 178 181 172
3 5 3 1 360 359 352 348 352 345 344 340 339 344 336 325 292 272 268 272 245 227 235 223 218 222 221 219 213 211 208 218 216 220 223 201 210 214 208 181 190 187 177
5 1 357 358 357 356 346 348 342 341 341 337 336 334 331 323 316 305 256 245 252 240 230 227 225 225 223 222 219 217 213 214 215 217 227 199 200 215 216 193 190 201 189
7 0 358 353 355 351 348 344 339 338 334 330 327 326 328 313 312 313 307 260 234 234 237 225 222 226 229 222 220 223 218 214 216 218 227 193 201 210 214 210 195 201 202
360 358 353 353 354 347 344 340 335 334 331 325 322 324 320 311 306 295 296 291 271 231 227 233 221 220 227 229 223 220 225 219 216 214 215 210 202 209 220 214 203 202 208
356 352 354 349 350 346 340 338 334 334 327 321 317 319 317 309 299 298 288 282 276 263 233 221 227 223 220 226 231 220 222 223 219 220 216 219 200 205 215 213 209 203 206
355 355 350 346 343 342 338 335 334 332 328 322 318 313 311 305 302 297 289 283 275 279 290 234 214 220 215 214 226 223 217 223 221 219 220 214 220 219 204 215 214 209 206
350 351 349 346 344 340 336 335 336 335 332 326 317 312 308 307 302 294 292 290 289 280 269 271 229 213 211 204 212 227 218 216 217 215 218 214 218 224 204 194 213 208 205
357 355 350 347 344 342 339 340 336 334 334 327 320 314 313 305 296 291 287 286 282 272 261 255 258 233 213 215 193 219 225 217 220 217 214 215 216 217 218 212 207 218 208
5 2 357 351 351 347 345 341 337 333 328 324 316 311 306 301 296 290 283 286 280 271 268 266 260 253 227 213 193 198 224 226 211 218 218 216 217 211 221 215 211 204 206
4 0 358 354 350 347 343 335 328 322 318 312 313 317 306 296 293 289 282 284 282 277 282 263 256 261 250 264 204 184 196 206 221 213 218 220 219 215 215 221 213 208 214
6 359 353 352 351 349 348 336 329 319 319 318 319 310 309 303 296 282 285 280 280 273 266 265 266 267 259 233 211 231 190 223 204 187 215 218 214 215 219 217 217 213 212
357 352 354 356 356 355 349 344 340 333 330 323 314 310 304 300 299 296 283 277 268 261 265 262 259 248 252 228 199 217 212 318 203 184 200 215 213 214 213 214 215 215 214
357 355 355 357 2 360 357 351 348 340 332 330 327 322 315 309 303 305 307 302 287 268 252 255 256 246 248 226 220 176 349 270 322 241 200 191 216 220 214 217 214 216 215
2 2 359 0 6 4 2 359 358 351 343 340 339 331 323 320 321 326 320 307 297 288 281 250 247 247 252 231 228 228 194 184 228 202 221 200 214 210 217 217 212 218 216